Location: Gälforsberget
(66.6500°N, 22.4167°E)
Time: 10:45:25
(UTC+00:00)

Cosmos 1975 Rocket - Pass Details

Date: 11 April 2026
Orbit: 597 x 626 km, 82.5° (Epoch: 19 May)

Event Time Altitude Azimuth Distance (km) Brightness Sun altitude
Rises 20:54:46 0° 341° (NNW) 2,930 8.6 -12.8°
Reaches altitude 10° 20:57:00 10° 340° (NNW) 2,020 7.2 -12.9°
Maximum altitude 21:01:28 72° 257° (WSW) 669 3.2 -13.0°
Enters shadow 21:04:36 19° 176° (S) 1,494 4.4 -13.1°
